GW0368 Weather Reports


time (UTC)temp
C
wind
direction
speed
KPH
gust
KPH
rain 1hr
cm
rain 24hr
cm
rain mn
cm
humidity
%
barometer
mb
20260510211504 28 209 3.2 8.0 0.00 0.00 0.00 49 1014.7
20260510210037 28 221 4.8 12.9 0.00 0.00 0.00 47 1014.8
20260510204548 28 90 3.2 9.7 0.00 0.00 0.00 51 1014.7
20260510203047 28 216 4.8 14.5 0.00 0.00 0.00 51 1014.9
20260510201519 28 192 1.6 9.7 0.00 0.00 0.00 53 1014.8
20260510200034 28 240 8.0 16.1 0.00 0.00 0.00 49 1014.8
20260510194515 27 202 4.8 11.3 0.00 0.00 0.00 52 1014.8
20260510193042 28 360 3.2 8.0 0.00 0.00 0.00 53 1015.0
20260510191541 27 273 3.2 9.7 0.00 0.00 0.00 56 1015.1
20260510190025 27 47 3.2 12.9 0.00 0.00 0.00 60 1015.4
20260510184526 27 319 1.6 9.7 0.00 0.00 0.00 58 1015.7
20260510183032 27 175 3.2 9.7 0.00 0.00 0.00 59 1015.7
20260510181523 27 84 1.6 9.7 0.00 0.00 0.00 65 1015.9
20260510174535 27 204 1.6 12.9 0.00 0.00 0.00 65 1016.0
20260510173045 26 209 3.2 9.7 0.00 0.00 0.00 68 1016.0
20260510171556 26 84 3.2 6.4 0.00 0.00 0.00 70 1016.1
20260510170049 26 73 1.6 6.4 0.00 0.00 0.00 69 1016.1
20260510164604 26 273 3.2 9.7 0.00 0.00 0.00 68 1016.2
20260510163111 25 333 1.6 8.0 0.00 0.00 0.00 71 1016.3
20260510161541 25 56 3.2 9.7 0.00 0.00 0.00 74 1016.5
20260510160035 25 298 1.6 8.0 0.00 0.00 0.00 75 1016.5
20260510154543 24 165 3.2 12.9 0.00 0.00 0.00 75 1016.9
20260510153058 24 323 1.6 8.0 0.00 0.00 0.00 75 1016.7
20260510151550 23 329 1.6 8.0 0.00 0.00 0.00 77 1016.7
20260510144517 23 217 1.6 9.7 0.00 0.00 0.00 79 1016.7
20260510143056 23 30 1.6 8.0 0.00 0.00 0.00 81 1016.5
20260510141537 22 348 1.6 4.8 0.00 0.00 0.00 83 1016.5
20260510140011 22 211 4.8 8.0 0.00 0.00 0.00 82 1016.7
20260510134521 21 5 1.6 6.4 0.00 0.00 0.00 85 1016.5
20260510133002 21 309 1.6 6.4 0.00 0.00 0.00 85 1016.3
20260510131557 20 285 0.0 6.4 0.00 0.00 0.00 87 1016.2
20260510130020 20 308 3.2 6.4 0.00 0.00 0.00 87 1016.0
20260510124557 19 275 1.6 6.4 0.00 0.00 0.00 89 1016.0
20260510123102 18 207 1.6 6.4 0.00 0.00 0.00 90 1016.0
20260510121558 17 198 1.6 3.2 0.00 0.00 0.00 91 1015.9
20260510120037 17 194 1.6 3.2 0.00 0.00 0.00 91 1015.7
20260510114559 16 173 0.0 3.2 0.00 0.00 0.00 90 1015.5
20260510113012 16 173 0.0 0.0 0.00 0.00 0.00 90 1015.3
20260510111538 16 173 0.0 4.8 0.00 0.00 0.00 91 1015.2
20260510104604 16 172 0.0 0.0 0.00 0.00 0.00 90 1015.0
20260510103104 16 172 0.0 0.0 0.00 0.00 0.00 89 1014.6
20260510101554 16 172 0.0 0.0 0.00 0.00 0.00 90 1014.4
20260510100108 16 172 0.0 1.6 0.00 0.00 0.00 90 1014.3
20260510094514 16 172 0.0 0.0 0.00 0.00 0.00 89 1014.2
20260510093029 16 172 0.0 3.2 0.00 0.00 0.00 90 1014.0
20260510091528 16 171 0.0 3.2 0.00 0.00 0.00 90 1013.8
20260510090134 16 169 0.0 0.0 0.00 0.00 0.00 89 1013.5
20260510084613 16 169 0.0 3.2 0.00 0.00 0.00 89 1013.4
20260510083056 16 169 0.0 0.0 0.00 0.00 0.00 89 1013.4
20260510081553 16 169 0.0 1.6 0.00 0.00 0.00 89 1013.4
20260510080055 16 169 0.0 0.0 0.00 0.00 0.00 89 1013.3
20260510074554 16 169 0.0 1.6 0.00 0.00 0.00 88 1013.2
20260510073002 16 168 0.0 1.6 0.00 0.00 0.00 88 1013.3
20260510071522 16 168 0.0 0.0 0.00 0.00 0.00 88 1013.1
20260510070039 16 168 0.0 0.0 0.00 0.00 0.00 88 1013.4
20260510064537 16 168 0.0 0.0 0.00 0.00 0.00 87 1013.2
20260510063100 16 168 0.0 0.0 0.00 0.00 0.00 87 1013.1
20260510061554 16 168 0.0 0.0 0.00 0.00 0.00 87 1013.1
20260510060054 16 168 0.0 0.0 0.00 0.00 0.00 87 1013.2
20260510054554 16 168 0.0 0.0 0.00 0.00 0.00 87 1013.3
20260510051504 16 168 0.0 0.0 0.00 0.00 0.00 87 1013.7
20260510044502 16 168 0.0 0.0 0.00 0.00 0.00 86 1013.8
20260510043112 16 168 0.0 0.0 0.00 0.00 0.00 85 1013.9
20260510041555 17 168 0.0 0.0 0.00 0.00 0.00 85 1013.7
20260510040101 17 168 0.0 0.0 0.00 0.00 0.00 85 1013.7
20260510034549 17 168 0.0 0.0 0.00 0.00 0.00 86 1013.6
20260510033108 17 168 0.0 0.0 0.00 0.00 0.00 85 1013.5
20260510031617 17 168 0.0 0.0 0.00 0.00 0.00 85 1013.4
20260510030105 17 168 0.0 0.0 0.00 0.00 0.00 85 1013.4
20260510024518 17 168 0.0 0.0 0.00 0.00 0.00 84 1013.2
20260510023133 17 168 0.0 0.0 0.00 0.00 0.00 84 1013.2
20260510021534 18 168 0.0 0.0 0.00 0.00 0.00 83 1013.1
20260510020052 18 168 0.0 0.0 0.00 0.00 0.00 83 1013.3
20260510014558 18 168 0.0 0.0 0.00 0.00 0.00 82 1013.0
20260510013056 18 168 0.0 0.0 0.00 0.00 0.00 80 1012.6
20260510011540 19 168 0.0 0.0 0.00 0.00 0.00 80 1012.5
20260510010030 19 168 0.0 0.0 0.00 0.00 0.00 79 1012.5
20260510004509 20 168 0.0 0.0 0.00 0.00 0.00 79 1012.3
20260510003017 20 168 0.0 0.0 0.00 0.00 0.00 78 1012.2
20260510001556 21 168 0.0 0.0 0.00 0.00 0.00 78 1012.3
20260510000109 21 168 0.0 0.0 0.00 0.00 0.00 78 1012.3
20260509234508 21 168 0.0 0.0 0.00 0.00 0.00 78 1012.1
20260509233012 22 168 0.0 4.8 0.00 0.00 0.00 78 1011.6
20260509231522 22 167 0.0 4.8 0.00 0.00 0.00 78 1011.7
20260509230101 22 165 1.6 6.4 0.00 0.00 0.00 77 1011.6
20260509224546 22 161 1.6 8.0 0.00 0.00 0.00 77 1011.4
20260509223054 22 189 0.0 8.0 0.00 0.00 0.00 78 1011.5
20260509221550 22 225 0.0 11.3 0.00 0.00 0.00 77 1011.5
20260509220050 22 231 3.2 8.0 0.00 0.00 0.00 77 1011.7
20260509214541 22 193 0.0 6.4 0.00 0.00 0.00 77 1011.5
20260509213044 22 230 6.4 12.9 0.00 0.00 0.00 77 1011.5